Kuchera_Ratio
0.0 0.0 0.0 0.0 0.0 0.0 0.0 0.0 0.0 0.0 0.0 0.0 0.0 0.0 0.0 0.0 0.0 0.0 0.0 0.0 0.0 0.0 0.0 0.0 0.0 0.0 0.0 0.0 0.0 0.0 0.0 0.0 0.0 0.0 0.0 0.0 0.0 0.0
0.0 0.0 0.0 0.0 0.0 0.0 0.0 0.0 0.0 0.0 0.0 0.0 0.0 0.0 0.0 0.0 0.0 0.0 0.0 0.0 0.0 0.0 0.0 0.0 0.0 0.0 0.0 0.0 0.0 0.0 0.0 0.0 0.0 0.0 0.0 0.0 0.0 0.0
0.0 0.0 0.0 0.0 0.0 0.0 0.0 0.0 0.0 0.0 0.0 0.0 0.0 0.0 0.0 0.0 0.0 0.0 0.0 0.0 0.0 0.0 0.0 0.0 0.0 0.0 0.0 0.0 0.0 0.0 0.0 0.0 0.0 0.0 0.0 0.0 0.0 0.0
0.0 0.0 0.0 0.0 0.0 0.0 0.0 0.0 0.0 0.0 0.0 0.0 0.0 0.0 0.0 0.0 0.0 0.0 0.0 0.0 0.0 0.0 0.0 0.0 0.0 0.0 0.0 0.0 0.0 0.0 0.0 0.0 0.0 0.0 0.0 0.0 0.0 0.0
0.0 0.0 0.0 0.0 0.0 0.0 0.0 0.0 0.0 0.0 0.0 0.0 0.0 0.0 0.0 0.0 0.0 0.0 0.0 0.0 0.0 0.0 0.0 0.0 0.0 0.0 0.0 0.0 0.0 0.0 0.0 0.0 0.0 0.0 0.0 0.0 0.0 0.0
0.0 0.0 0.0 0.0 0.0 0.0 0.0 0.0 0.0 0.0 0.0 0.0 0.0 0.0 0.0 0.0 0.0 1.2 0.4 0.0 0.0 0.0 0.0 0.0 0.0 0.0 0.0 0.0 0.0 0.0 0.0 0.0 0.0 0.0 0.0 0.0 0.0 0.0
0.0 0.0 0.0 0.0 0.0 0.0 0.0 0.0 0.0 0.0 0.0 0.0 0.8 3.2 3.0 4.2 5.0 4.8 5.2 4.2 2.4 1.8 1.0 0.0 0.0 0.0 0.0 0.0 0.0 0.0 0.0 0.0 0.0 0.0 0.0 0.0 0.0 0.0
0.0 0.0 0.0 0.0 0.0 0.0 0.0 0.0 0.0 0.0 1.9 3.2 3.4 4.7 6.8 8.4 7.2 7.2 7.4 8.2 9.0 2.4 5.2 6.4 2.6 3.4 1.8 0.4 0.0 0.0 0.0 0.0 0.0 0.0 0.0 0.2 0.8 1.2
0.0 0.0 0.0 0.0 0.3 2.0 1.7 3.4 3.4 4.1 3.3 4.8 7.0 8.3 10.2 10.4 10.2 10.6 11.0 11.2 11.0 7.0 7.4 9.2 8.7 9.2 3.7 0.0 0.0 0.0 0.0 0.0 0.0 0.0 0.4 1.4 1.8 2.4
0.0 0.0 1.0 2.6 5.6 5.8 6.6 7.8 6.9 8.2 7.6 8.2 10.4 11.0 11.2 8.2 11.4 11.4 12.3 12.1 11.8 9.4 12.0 14.0 10.2 12.1 8.5 5.6 1.4 0.2 2.0 4.4 4.8 4.4 3.8 2.2 1.6 2.2
0.1 2.4 4.5 7.3 7.8 4.8 9.0 11.0 11.5 11.4 5.2 3.6 4.0 4.4 6.0 7.6 8.6 12.9 14.8 15.9 16.5 14.2 13.3 15.0 13.4 14.1 13.0 12.4 9.1 5.2 4.4 4.4 4.2 3.6 5.2 5.6 5.6 5.0
6.0 7.5 7.4 7.8 7.2 8.4 12.0 12.8 13.0 13.3 12.4 12.2 11.6 10.4 9.6 10.2 10.6 13.0 14.5 16.8 16.6 17.7 14.6 16.5 15.5 15.8 17.7 13.9 13.2 12.2 12.0 8.2 6.2 5.0 4.0 4.2 4.2 6.2
8.7 9.9 8.8 7.4 7.8 8.4 9.4 12.2 12.9 12.9 12.9 13.4 13.7 14.3 14.3 14.2 14.1 13.8 14.4 16.1 17.2 17.3 14.1 15.2 16.2 15.8 16.2 16.5 14.1 13.1 12.7 12.8 12.7 11.6 7.6 5.6 4.8 5.8
11.4 12.0 10.2 7.6 8.2 9.8 12.0 11.8 12.5 14.1 15.5 16.1 16.6 16.8 16.9 16.4 15.8 15.5 14.9 15.2 15.2 16.0 14.8 15.3 18.9 17.5 17.9 18.6 18.2 14.8 14.4 13.2 13.8 13.5 12.6 9.0 8.0 8.0
11.0 9.4 9.2 9.6 11.4 12.9 12.5 13.3 15.0 16.9 18.1 18.7 19.2 18.6 17.6 16.7 15.9 16.0 15.7 15.5 15.6 15.2 13.9 14.9 16.5 16.5 17.9 19.2 19.1 17.9 17.6 15.5 14.1 14.7 14.2 13.7 13.0 12.1
12.8 13.7 13.5 13.7 14.7 15.1 15.5 15.7 16.6 17.8 18.7 19.7 20.0 19.2 17.9 18.2 18.7 17.7 19.0 18.5 19.6 19.1 15.2 15.3 16.0 17.0 19.5 18.6 18.2 18.8 17.0 18.8 16.5 16.6 16.2 15.3 14.1 13.2
15.3 15.5 16.5 16.9 17.8 17.9 18.0 17.9 18.2 18.4 19.9 20.1 20.7 20.5 20.0 19.8 20.0 19.1 19.4 19.8 21.6 21.1 20.2 17.9 16.3 16.4 17.0 17.3 19.6 17.9 18.6 18.6 17.7 17.1 16.4 16.9 15.3 14.2
16.8 17.5 18.1 18.6 19.3 20.0 20.7 20.9 20.1 20.5 20.1 20.0 21.4 21.2 21.8 21.9 21.9 20.9 20.6 21.9 22.9 21.9 21.4 19.9 19.4 19.8 19.3 18.0 15.9 19.3 20.0 20.0 18.6 17.3 16.7 18.5 17.9 15.1
18.0 18.7 19.4 20.0 20.7 20.9 21.1 21.4 22.1 21.3 20.3 21.4 22.4 22.8 22.6 22.4 22.7 22.5 22.4 22.6 23.0 22.1 21.6 20.4 20.7 21.8 24.0 25.5 19.6 15.5 19.7 19.0 18.7 19.0 17.9 18.0 18.5 16.8
19.5 20.0 20.9 21.6 21.4 21.4 21.7 22.3 22.7 23.5 24.0 23.2 24.6 24.8 25.0 23.7 24.5 24.2 23.5 24.3 23.9 22.7 22.0 21.1 21.3 21.4 23.1 23.8 23.4 21.0 15.8 19.2 19.6 20.0 19.4 17.7 16.3 13.7
20.8 21.3 22.3 22.5 22.8 22.8 24.8 24.9 25.1 25.2 25.2 25.2 25.4 25.8 26.1 25.3 25.5 24.5 24.1 24.2 24.0 23.1 23.9 23.1 21.2 18.8 19.4 20.3 23.5 22.4 20.3 15.7 16.1 18.3 18.5 19.4 19.5 18.1
22.7 22.7 22.7 23.7 24.8 25.2 25.7 25.8 25.9 26.0 26.0 26.4 26.6 27.0 27.3 26.4 26.0 25.5 24.9 24.8 24.6 23.8 23.1 21.9 20.3 20.3 21.4 22.2 23.6 23.1 21.6 19.8 16.6 15.1 14.6 15.5 19.2 21.2
23.5 24.0 24.4 25.0 25.5 26.3 25.8 26.6 26.8 26.9 27.0 27.2 27.4 26.6 28.1 27.4 25.8 25.2 25.5 25.6 24.5 24.4 24.3 23.6 22.2 21.2 21.9 21.7 22.4 22.4 21.8 21.2 19.8 19.5 18.2 14.2 14.1 13.6